Showing default

LEMUR 1, 40044

Orbit data source: Space-Track

LEMUR 1, 40044 is a payload satellite owned by NanoSatisfi (US) in SSO that was launched on Thu, 19 Jun 2014 UTC via a DNEPR launch vehicle from the Orenburg, Russia (OREN). Payloads include a variety of satellites, spacecraft, and rockets equipped with specific instruments for various scientific and technological missions. These include communications satellites like Starlink; space stations such as the ISS; scientific satellites like the Hubble; Earth observation satellites from companies like Planet Labs, Umbra, and HawkEye 360; GPS; miniature CubeSats for education and research; and military/defense satellites.

Loading next visibility...
LEMUR 1 details
Identifier
40044, 2014-033AL
Orbit
SSO
Last TLE update9 hours ago
Origin
Flag of USNanoSatisfi (US)
ManufacturerNanoSatisfi
MissionOperational Commercial Technology
Bus & MotorCUBESAT 3U, Unknown motor
Mass~4 kg wet, ~4 kg dry
Launch date (UTC)
2014-06-19 (11 years ago)
Launch vehicle
DNEPR
Launch site
Orenburg, Russia (OREN)
Object type
Payload
Rocket body
Debris
Shape & HBRBox, 0.5 m
Radar Cross Section0.093 m², Small (<0.1 m²)

Expand to show TLE details & history

TLE from 9 hours ago
0 LEMUR 1
1 40044U 14033AL  24361.20056575  .00005277  00000-0  66626-3 0  9999
2 40044  97.7155 155.6707 0052901  41.6838 318.8387 14.81317747565700
Epoch: 2024-12-26T04:48Z
Definitive object data (Epoch: 2024-12-26T04:48:48.88Z)
Latitude-0.00012°
Longitude-11.71632°
Altitude600.384 km
Speed7.574 km/s
True Right ascension10h 22m 40s
True Declination0° 00' 00"
Sunlit
Object was in full shadow at TLE epoch
Visualization TLE readout
Latitude-25.3944°
Longitude164.97822°
Altitude670.482 km
Speed7.501 km/s
Apparent Right ascension23h 28m 14s
Apparent Declination-34° 13' 50"
Sunlit
Object is in daylight
Visualization observer readout
Local Sidereal Time13:12:13
Azimuth82.86° E
Elevation-68.579°
Doppler factor1
Orbital elements
Apogee altitude659.231 km
Perigee altitude585.166 km
Semi-major axis7,000.336 km
Eccentricity0.0052901
Inclination97.7155°
RAAN155.6707°
Arg. of periapsis41.6838°
True anomaly318.43772°
Mean anomaly318.8387°
Eccentric anomaly318.63841°
Mean motion3.70565 °/min
BSTAR0.00066626
Orbital period97.15 mins
Loading maneuver chart data...
Loading historical data...
Loading historical data...
Loading historical data...
Loading historical data...
Loading historical data...
Loading historical data...
Loading historical data...

LEMUR 1 Visibility forecast

Observer location: undefined°, undefined

Span
Click to sort rows by Start time (UTC) header in descending order
Start Az.
Max El. time (UTC)
Max El. Az.
Max El.
End time (UTC)
End Az.
8 mins2024-12-26 23:12:28.681Z19.164° NNE2024-12-26 23:16:28.681Z113.485° SE42.328°2024-12-26 23:20:28.681Z183.483° SSW
6 mins2024-12-27 10:08:28.681Z133.883° SE2024-12-27 10:10:28.681Z85.784° E34.445°2024-12-27 10:14:28.681Z2.077° NNE
|